PORTS® Data Listing: 8771450 Galveston Pier 21, TX

CO-OPS RAW PORTS DATA

************************      PRELIMINARY DATA      ************************** 

     THIS RAW DATA HAS NOT BEEN SUBJECT TO THE NATIONAL OCEAN SERVICE'S        
     QUALITY CONTROL OR QUALITY ASSURANCE PROCEDURES AND DOES NOT MEET         
     THE CRITERIA AND STANDARDS OF OFFICIAL NATIONAL OCEAN SERVICE             
     DATA.  IT IS RELEASED FOR LIMITED PUBLIC USE AS PRELIMINARY DATA TO       
     BE USED ONLY WITH APPROPRIATE CAUTION.                                    

************************      PRELIMINARY DATA      ************************** 


       CD   -   Calendar date
       T    -   Time
       TZ   -   Timezone
       PW   -   Predicted water level (feet above MLLW)
       OW   -   Observed water level (feet above MLLW)
       WS   -   Wind speed (knots)
       WD   -   Wind direction (degrees true)
       WG   -   Wind gust (knots)
       AT   -   Air temperature (degrees farenheit)
       WT   -   Water temperature (degrees farenheit)
       AP   -   Air pressure (millibars)
       SA   -   Salinty (PSU - Practical Salinity Units)
       SG   -   Specific gravity
       RH   -   Relative humidity
       AG   -   Air gap (feet)
       VI   -   Visibility (nautical miles)

       ** NOTE **
       A variable that has its data fields filled with "9"s, indicates that
       data was not collected for that sample period.
       **********


STATION NAME: Galveston Pier 21 (8771450)
****************************************************************************************************
    CD       T    TZ    PW     OW    WS   WD   WG    AT    WT    AP    SA    SG     RH    AG   VI
****************************************************************************************************
2019/11/20 12:48 CST    0.71   1.35    7  135   12  73.2  62.2 1016.6 -9.9 -9.999 -99.9 -99.99 -9.99
2019/11/20 12:54 CST    0.69   1.33    7  149   10  73.2  62.2 1016.4 -9.9 -9.999 -99.9 -99.99 -9.99
2019/11/20 13:00 CST    0.67   1.27    5  133   11  73.4  62.2 1016.4 -9.9 -9.999 -99.9 -99.99 -9.99
2019/11/20 13:06 CST    0.65   1.29    6  134   10  73.6  62.2 1016.2 -9.9 -9.999 -99.9 -99.99 -9.99
2019/11/20 13:12 CST    0.63   1.24    6  138   11  73.2  62.2 1016.1 -9.9 -9.999 -99.9 -99.99 -9.99
2019/11/20 13:18 CST    0.61   1.21    6  132   12  73.0  62.2 1016.0 -9.9 -9.999 -99.9 -99.99 -9.99
2019/11/20 13:24 CST    0.59   1.20    8  143   13  72.7  62.2 1015.9 -9.9 -9.999 -99.9 -99.99 -9.99
2019/11/20 13:30 CST    0.58   1.24    7  134   11  72.9  62.2 1015.8 -9.9 -9.999 -99.9 -99.99 -9.99
2019/11/20 13:36 CST    0.56   1.21    5  128    9  73.0  62.2 1015.8 -9.9 -9.999 -99.9 -99.99 -9.99
2019/11/20 13:42 CST    0.54   1.15    6  130   11  73.0  62.2 1015.7 -9.9 -9.999 -99.9 -99.99 -9.99
2019/11/20 13:48 CST    0.52   1.16    7  121   11  72.7  62.2 1015.6 -9.9 -9.999 -99.9 -99.99 -9.99
2019/11/20 13:54 CST    0.51   1.09    6  136   11  73.0  62.2 1015.5 -9.9 -9.999 -99.9 -99.99 -9.99
2019/11/20 14:00 CST    0.49   1.08    5  128   11  72.9  62.2 1015.4 -9.9 -9.999 -99.9 -99.99 -9.99
2019/11/20 14:06 CST    0.48   1.11    6  128   12  72.7  62.2 1015.3 -9.9 -9.999 -99.9 -99.99 -9.99
2019/11/20 14:12 CST    0.46   1.07    6  140   12  72.7  62.2 1015.4 -9.9 -9.999 -99.9 -99.99 -9.99
2019/11/20 14:18 CST    0.45   1.07    5  127   12  72.9  62.2 1015.4 -9.9 -9.999 -99.9 -99.99 -9.99
2019/11/20 14:24 CST    0.43   1.03    6  142   11  72.9  62.2 1015.3 -9.9 -9.999 -99.9 -99.99 -9.99
2019/11/20 14:30 CST    0.42   1.01    8  128   11  72.5  62.2 1015.2 -9.9 -9.999 -99.9 -99.99 -9.99
2019/11/20 14:36 CST    0.41   1.05    7  126   11  72.7  62.2 1015.2 -9.9 -9.999 -99.9 -99.99 -9.99
2019/11/20 14:42 CST    0.40   0.99    6  133   11  72.5  62.2 1015.1 -9.9 -9.999 -99.9 -99.99 -9.99
2019/11/20 14:48 CST    0.38   0.90    7  139   13  72.3  62.2 1015.2 -9.9 -9.999 -99.9 -99.99 -9.99
2019/11/20 14:54 CST    0.37   0.95    7  121   11  72.1  62.2 1015.2 -9.9 -9.999 -99.9 -99.99 -9.99
2019/11/20 15:00 CST    0.36   0.98    7  120   11  72.1  62.4 1015.3 -9.9 -9.999 -99.9 -99.99 -9.99
2019/11/20 15:06 CST    0.36   0.99    8  126   13  71.8  62.4 1015.4 -9.9 -9.999 -99.9 -99.99 -9.99
2019/11/20 15:12 CST    0.35   0.97    7  125   13  71.6  62.4 1015.3 -9.9 -9.999 -99.9 -99.99 -9.99
2019/11/20 15:18 CST    0.34   0.92    7  118   14  71.2  62.4 1015.2 -9.9 -9.999 -99.9 -99.99 -9.99
2019/11/20 15:24 CST    0.33   0.93    8  126   13  70.9  62.4 1015.3 -9.9 -9.999 -99.9 -99.99 -9.99
2019/11/20 15:30 CST    0.33   0.96    8  122   14  71.1  62.4 1015.2 -9.9 -9.999 -99.9 -99.99 -9.99
2019/11/20 15:36 CST    0.32   0.96    9  122   13  70.9  62.4 1015.2 -9.9 -9.999 -99.9 -99.99 -9.99
2019/11/20 15:42 CST    0.32   0.94    8  117   14  70.9  62.4 1015.1 -9.9 -9.999 -99.9 -99.99 -9.99
2019/11/20 15:48 CST    0.31   0.96    8  119   13  70.7  62.4 1015.1 -9.9 -9.999 -99.9 -99.99 -9.99
2019/11/20 15:54 CST    0.31   0.95    5  133   12  70.9  62.6 1015.2 -9.9 -9.999 -99.9 -99.99 -9.99
2019/11/20 16:00 CST    0.31   0.87    7  123   12  70.7  62.6 1015.2 -9.9 -9.999 -99.9 -99.99 -9.99
2019/11/20 16:06 CST    0.31   0.95    9  126   14  70.2  62.6 1015.3 -9.9 -9.999 -99.9 -99.99 -9.99
2019/11/20 16:12 CST    0.31   0.94    9  125   13  70.0  62.6 1015.2 -9.9 -9.999 -99.9 -99.99 -9.99
2019/11/20 16:18 CST    0.31   0.93    8  120   13  70.0  62.6 1015.2 -9.9 -9.999 -99.9 -99.99 -9.99
2019/11/20 16:24 CST    0.31   0.93    7  123   12  69.8  62.6 1015.1 -9.9 -9.999 -99.9 -99.99 -9.99
2019/11/20 16:30 CST    0.31   0.98    8  124   14  69.4  62.6 1015.2 -9.9 -9.999 -99.9 -99.99 -9.99
2019/11/20 16:36 CST    0.32   1.00    9  129   14  69.4  62.6 1015.3 -9.9 -9.999 -99.9 -99.99 -9.99
2019/11/20 16:42 CST    0.32   0.98    7  117   12  69.4  62.6 1015.3 -9.9 -9.999 -99.9 -99.99 -9.99
2019/11/20 16:48 CST    0.32   0.98    7  123   12  69.3  62.8 1015.4 -9.9 -9.999 -99.9 -99.99 -9.99
2019/11/20 16:54 CST    0.33   0.92    9  121   12  69.3  62.8 1015.4 -9.9 -9.999 -99.9 -99.99 -9.99
2019/11/20 17:00 CST    0.33   1.14    9  121   13  69.3  62.8 1015.4 -9.9 -9.999 -99.9 -99.99 -9.99
2019/11/20 17:06 CST    0.34   1.00    7  121   11  68.9  62.8 1015.4 -9.9 -9.999 -99.9 -99.99 -9.99
2019/11/20 17:12 CST    0.35   0.95    7  121   13  68.7  62.8 1015.4 -9.9 -9.999 -99.9 -99.99 -9.99
2019/11/20 17:18 CST    0.35   1.04    8  119   12  68.7  62.8 1015.3 -9.9 -9.999 -99.9 -99.99 -9.99
2019/11/20 17:24 CST    0.36   1.00    7  124   12  68.9  62.8 1015.3 -9.9 -9.999 -99.9 -99.99 -9.99
2019/11/20 17:30 CST    0.37   1.07    6  125   10  68.7  62.8 1015.5 -9.9 -9.999 -99.9 -99.99 -9.99
2019/11/20 17:36 CST    0.38   1.12    5  134   10  68.9  62.8 1015.5 -9.9 -9.999 -99.9 -99.99 -9.99
2019/11/20 17:42 CST    0.39   1.13    5  129   10  68.9  62.8 1015.5 -9.9 -9.999 -99.9 -99.99 -9.99
2019/11/20 17:48 CST    0.40   1.09    4  130    8  68.9  62.8 1015.7 -9.9 -9.999 -99.9 -99.99 -9.99
2019/11/20 17:54 CST    0.42   1.05    4  128    9  68.9  62.8 1015.7 -9.9 -9.999 -99.9 -99.99 -9.99
2019/11/20 18:00 CST    0.43   1.18    4  123   10  68.9  63.0 1015.6 -9.9 -9.999 -99.9 -99.99 -9.99
2019/11/20 18:06 CST    0.44   1.19    6  122   12  68.9  63.0 1015.6 -9.9 -9.999 -99.9 -99.99 -9.99
2019/11/20 18:12 CST    0.45   1.14    6  126   12  68.9  63.0 1015.6 -9.9 -9.999 -99.9 -99.99 -9.99
2019/11/20 18:18 CST    0.47   1.17    4  133   11  69.1  63.0 1015.7 -9.9 -9.999 -99.9 -99.99 -9.99
2019/11/20 18:24 CST    0.48   1.18    5  131    8  69.1  63.0 1015.7 -9.9 -9.999 -99.9 -99.99 -9.99
2019/11/20 18:30 CST    0.50   1.21    4  127    8  69.1  63.0 1015.7 -9.9 -9.999 -99.9 -99.99 -9.99
2019/11/20 18:36 CST    0.51   1.28    5  131   10  68.9  63.0 1015.7 -9.9 -9.999 -99.9 -99.99 -9.99
2019/11/20 18:42 CST    0.53   1.22    4  136   10  69.1  63.0 1015.7 -9.9 -9.999 -99.9 -99.99 -9.99
2019/11/20 18:48 CST    0.55   1.22    5  132   11  68.9  63.0 1015.7 -9.9 -9.999 -99.9 -99.99 -9.99
2019/11/20 18:54 CST    0.57   1.27    6  141   12  68.9  63.0 1015.8 -9.9 -9.999 -99.9 -99.99 -9.99
2019/11/20 19:00 CST    0.58   1.30    5  141   11  69.1  63.0 1015.8 -9.9 -9.999 -99.9 -99.99 -9.99
2019/11/20 19:06 CST    0.60   1.36    5  136    9  68.9  63.0 1015.8 -9.9 -9.999 -99.9 -99.99 -9.99
2019/11/20 19:12 CST    0.62   1.35    4  135   11  68.9  63.0 1015.9 -9.9 -9.999 -99.9 -99.99 -9.99
2019/11/20 19:18 CST    0.64   1.38    4  139   12  68.9  63.0 1015.9 -9.9 -9.999 -99.9 -99.99 -9.99
2019/11/20 19:24 CST    0.66   1.40    6  136   10  68.9  63.1 1015.9 -9.9 -9.999 -99.9 -99.99 -9.99
2019/11/20 19:30 CST    0.68   1.42    6  127   11  69.1  63.1 1015.9 -9.9 -9.999 -99.9 -99.99 -9.99
2019/11/20 19:36 CST    0.70   1.43    5  144    8  69.3  63.1 1016.0 -9.9 -9.999 -99.9 -99.99 -9.99
2019/11/20 19:42 CST    0.72   1.42    6  145    9  69.4  63.1 1016.3 -9.9 -9.999 -99.9 -99.99 -9.99
2019/11/20 19:48 CST    0.74   1.48    4  145    9  69.4  63.1 1016.4 -9.9 -9.999 -99.9 -99.99 -9.99
2019/11/20 19:54 CST    0.77   1.49    5  131    9  69.1  63.1 1016.4 -9.9 -9.999 -99.9 -99.99 -9.99
2019/11/20 20:00 CST    0.79   1.57    5  145   10  69.1  63.1 1016.4 -9.9 -9.999 -99.9 -99.99 -9.99
2019/11/20 20:06 CST    0.81   1.61    3  149    9  69.1  63.1 1016.4 -9.9 -9.999 -99.9 -99.99 -9.99
2019/11/20 20:12 CST    0.83   1.60    4  141    8  69.1  63.1 1016.5 -9.9 -9.999 -99.9 -99.99 -9.99
2019/11/20 20:18 CST    0.86   1.63    5  148    8  69.1  63.0 1016.5 -9.9 -9.999 -99.9 -99.99 -9.99
2019/11/20 20:24 CST    0.88   1.66    4  144    7  69.3  63.0 1016.5 -9.9 -9.999 -99.9 -99.99 -9.99
2019/11/20 20:30 CST    0.90   1.70    4  148    7  69.6  63.0 1016.6 -9.9 -9.999 -99.9 -99.99 -9.99
2019/11/20 20:36 CST    0.92   1.68    5  154    8  69.6  63.0 1016.6 -9.9 -9.999 -99.9 -99.99 -9.99
2019/11/20 20:42 CST    0.95   1.70    3  143    7  69.4  63.0 1016.6 -9.9 -9.999 -99.9 -99.99 -9.99
2019/11/20 20:48 CST    0.97   1.76    4  142    7  69.4  63.0 1016.5 -9.9 -9.999 -99.9 -99.99 -9.99
2019/11/20 20:54 CST    0.99   1.79    4  140    7  69.4  63.0 1016.6 -9.9 -9.999 -99.9 -99.99 -9.99
2019/11/20 21:00 CST    1.02   1.83    4  141    9  69.4  62.8 1016.7 -9.9 -9.999 -99.9 -99.99 -9.99
2019/11/20 21:06 CST    1.04   1.83    4  136    7  68.9  62.8 1016.7 -9.9 -9.999 -99.9 -99.99 -9.99
2019/11/20 21:12 CST    1.06   1.86    4  132   10  68.7  62.8 1016.6 -9.9 -9.999 -99.9 -99.99 -9.99
2019/11/20 21:18 CST    1.09   1.91    5  141    9  69.1  62.8 1016.5 -9.9 -9.999 -99.9 -99.99 -9.99
2019/11/20 21:24 CST    1.11   1.93    4  136    9  69.1  62.8 1016.5 -9.9 -9.999 -99.9 -99.99 -9.99
2019/11/20 21:30 CST    1.13   1.94    4  143    8  68.9  62.8 1016.4 -9.9 -9.999 -99.9 -99.99 -9.99
2019/11/20 21:36 CST    1.15   1.98    4  140    7  68.9  62.8 1016.4 -9.9 -9.999 -99.9 -99.99 -9.99
2019/11/20 21:42 CST    1.17   1.97    4  153    7  69.1  62.8 1016.4 -9.9 -9.999 -99.9 -99.99 -9.99
2019/11/20 21:48 CST    1.20   2.00    5  150   11  69.3  62.8 1016.4 -9.9 -9.999 -99.9 -99.99 -9.99
2019/11/20 21:54 CST    1.22   2.05    4  140    7  69.3  62.8 1016.4 -9.9 -9.999 -99.9 -99.99 -9.99
2019/11/20 22:00 CST    1.24   2.06    4  142    8  69.3  62.8 1016.4 -9.9 -9.999 -99.9 -99.99 -9.99
2019/11/20 22:06 CST    1.25   2.09    4  151    9  69.4  62.8 1016.4 -9.9 -9.999 -99.9 -99.99 -9.99
2019/11/20 22:12 CST    1.27   2.14    6  146   11  69.8  62.8 1016.4 -9.9 -9.999 -99.9 -99.99 -9.99
2019/11/20 22:18 CST    1.29   2.17    7  151   12  70.0  62.8 1016.5 -9.9 -9.999 -99.9 -99.99 -9.99
2019/11/20 22:24 CST    1.31   2.17    6  159   11  70.5  62.8 1016.5 -9.9 -9.999 -99.9 -99.99 -9.99
2019/11/20 22:30 CST    1.32   2.18    7  149   11  70.2  62.8 1016.5 -9.9 -9.999 -99.9 -99.99 -9.99
2019/11/20 22:36 CST    1.34   2.20    6  150   12  70.2  62.8 1016.5 -9.9 -9.999 -99.9 -99.99 -9.99
2019/11/20 22:42 CST    1.36   2.22    8  159   13  70.5  62.8 1016.5 -9.9 -9.999 -99.9 -99.99 -9.99
2019/11/20 22:48 CST    1.37   2.24    7  160   12  70.7  62.8 1016.6 -9.9 -9.999 -99.9 -99.99 -9.99
2019/11/20 22:54 CST    1.38   2.25    6  158   12  70.5  62.8 1016.6 -9.9 -9.999 -99.9 -99.99 -9.99
2019/11/20 23:00 CST    1.39   2.26    6  156   12  70.7  62.8 1016.5 -9.9 -9.999 -99.9 -99.99 -9.99
2019/11/20 23:06 CST    1.41   2.33    5  161    9  70.3  62.8 1016.4 -9.9 -9.999 -99.9 -99.99 -9.99
2019/11/20 23:12 CST    1.42   2.36    7  153   11  70.3  62.6 1016.5 -9.9 -9.999 -99.9 -99.99 -9.99
2019/11/20 23:18 CST    1.43   2.35    5  153   13  70.2  62.6 1016.4 -9.9 -9.999 -99.9 -99.99 -9.99
2019/11/20 23:24 CST    1.43   2.35    7  156   10  70.2  62.6 1016.4 -9.9 -9.999 -99.9 -99.99 -9.99
2019/11/20 23:30 CST    1.44   2.37    6  155   13  70.2  62.6 1016.4 -9.9 -9.999 -99.9 -99.99 -9.99
2019/11/20 23:36 CST    1.45   2.38    7  155   12  70.3  62.6 1016.4 -9.9 -9.999 -99.9 -99.99 -9.99
2019/11/20 23:42 CST    1.45   2.40    5  155   10  70.2  62.6 1016.4 -9.9 -9.999 -99.9 -99.99 -9.99
2019/11/20 23:48 CST    1.46   2.39    7  155   12  70.3  62.6 1016.4 -9.9 -9.999 -99.9 -99.99 -9.99
2019/11/20 23:54 CST    1.46   2.40    5  145   10  70.0  62.6 1016.4 -9.9 -9.999 -99.9 -99.99 -9.99
2019/11/21 00:00 CST    1.46   2.40    5  155   11  70.0  62.6 1016.5 -9.9 -9.999 -99.9 -99.99 -9.99
2019/11/21 00:06 CST    1.46   2.41    6  156   10  70.3  62.6 1016.4 -9.9 -9.999 -99.9 -99.99 -9.99
2019/11/21 00:12 CST    1.47   2.41    6  161   12  70.5  62.6 1016.4 -9.9 -9.999 -99.9 -99.99 -9.99
2019/11/21 00:18 CST    1.46   2.41    6  152   11  70.9  62.6 1016.5 -9.9 -9.999 -99.9 -99.99 -9.99
2019/11/21 00:24 CST    1.46   2.42    6  160   12  70.9  62.6 1016.2 -9.9 -9.999 -99.9 -99.99 -9.99
2019/11/21 00:30 CST    1.46   2.40    7  159   11  70.9  62.6 1016.2 -9.9 -9.999 -99.9 -99.99 -9.99
2019/11/21 00:36 CST    1.46   2.39    6  158   14  70.9  62.6 1016.2 -9.9 -9.999 -99.9 -99.99 -9.99
2019/11/21 00:42 CST    1.45   2.39    6  163   14  70.9  62.6 1016.3 -9.9 -9.999 -99.9 -99.99 -9.99
2019/11/21 00:48 CST    1.45   2.38    6  160   10  70.9  62.6 1016.3 -9.9 -9.999 -99.9 -99.99 -9.99
2019/11/21 00:54 CST    1.44   2.37    7  165   11  71.1  62.6 1016.4 -9.9 -9.999 -99.9 -99.99 -9.99
2019/11/21 01:00 CST    1.44   2.38    6  169   11  70.9  62.6 1016.5 -9.9 -9.999 -99.9 -99.99 -9.99
2019/11/21 01:06 CST    1.43   2.36    6  164   11  71.1  62.6 1016.5 -9.9 -9.999 -99.9 -99.99 -9.99
2019/11/21 01:12 CST    1.42   2.35    5  150    9  70.9  62.6 1016.6 -9.9 -9.999 -99.9 -99.99 -9.99
2019/11/21 01:18 CST    1.42   2.35    6  154   10  71.1  62.6 1016.5 -9.9 -9.999 -99.9 -99.99 -9.99
2019/11/21 01:24 CST    1.41   2.33    4  163    9  71.1  62.6 1016.4 -9.9 -9.999 -99.9 -99.99 -9.99
2019/11/21 01:30 CST    1.40   2.30    5  154   10  70.7  62.6 1016.4 -9.9 -9.999 -99.9 -99.99 -9.99
2019/11/21 01:36 CST    1.39   2.30    6  163   12  71.1  62.6 1016.5 -9.9 -9.999 -99.9 -99.99 -9.99
2019/11/21 01:42 CST    1.38   2.27    4  154   10  70.9  62.6 1016.4 -9.9 -9.999 -99.9 -99.99 -9.99
2019/11/21 01:48 CST    1.37   2.26    5  152   11  70.7  62.6 1016.4 -9.9 -9.999 -99.9 -99.99 -9.99
2019/11/21 01:54 CST    1.36   2.26    6  151   11  70.3  62.6 1016.3 -9.9 -9.999 -99.9 -99.99 -9.99
2019/11/21 02:00 CST    1.35   2.23    5  151    9  70.2  62.6 1016.3 -9.9 -9.999 -99.9 -99.99 -9.99
2019/11/21 02:06 CST    1.34   2.21    7  154   12  70.5  62.6 1016.2 -9.9 -9.999 -99.9 -99.99 -9.99
2019/11/21 02:12 CST    1.32   2.21    5  148   11  70.2  62.6 1016.0 -9.9 -9.999 -99.9 -99.99 -9.99
2019/11/21 02:18 CST    1.31   2.21    5  153   10  70.2  62.6 1016.1 -9.9 -9.999 -99.9 -99.99 -9.99
2019/11/21 02:24 CST    1.30   2.21    4  157   11  70.3  62.6 1016.0 -9.9 -9.999 -99.9 -99.99 -9.99
2019/11/21 02:30 CST    1.29   2.18    6  145   10  70.5  62.6 1015.9 -9.9 -9.999 -99.9 -99.99 -9.99
2019/11/21 02:36 CST    1.28   2.15    5  150   11  70.3  62.6 1016.0 -9.9 -9.999 -99.9 -99.99 -9.99
2019/11/21 02:42 CST    1.26   2.17    6  157   10  70.7  62.6 1015.9 -9.9 -9.999 -99.9 -99.99 -9.99
2019/11/21 02:48 CST    1.25   2.17    6  159   10  70.3  62.6 1015.9 -9.9 -9.999 -99.9 -99.99 -9.99
2019/11/21 02:54 CST    1.24   2.16    6  154   10  70.5  62.6 1016.0 -9.9 -9.999 -99.9 -99.99 -9.99
2019/11/21 03:00 CST    1.23   2.13    6  162   10  70.5  62.6 1016.2 -9.9 -9.999 -99.9 -99.99 -9.99
2019/11/21 03:06 CST    1.22   2.14    6  154   10  70.3  62.6 1016.1 -9.9 -9.999 -99.9 -99.99 -9.99
2019/11/21 03:12 CST    1.21   2.12    6  153   12  70.0  62.6 1016.1 -9.9 -9.999 -99.9 -99.99 -9.99
2019/11/21 03:18 CST    1.19   2.10    4  148   11  70.2  62.6 1016.3 -9.9 -9.999 -99.9 -99.99 -9.99
2019/11/21 03:24 CST    1.18   2.09    5  158   11  70.3  62.6 1016.4 -9.9 -9.999 -99.9 -99.99 -9.99
2019/11/21 03:30 CST    1.17   2.11    5  164   11  70.7  62.6 1016.5 -9.9 -9.999 -99.9 -99.99 -9.99
2019/11/21 03:36 CST    1.16   2.14    4  150    9  70.9  62.6 1016.5 -9.9 -9.999 -99.9 -99.99 -9.99
2019/11/21 03:42 CST    1.15   2.09    6  155   11  71.1  62.6 1016.5 -9.9 -9.999 -99.9 -99.99 -9.99
2019/11/21 03:48 CST    1.14   2.04    5  164    9  71.1  62.6 1016.5 -9.9 -9.999 -99.9 -99.99 -9.99
2019/11/21 03:54 CST    1.13   2.11    6  154   10  70.9  62.6 1016.5 -9.9 -9.999 -99.9 -99.99 -9.99
2019/11/21 04:00 CST    1.12   2.10    5  149   11  70.7  62.6 1016.3 -9.9 -9.999 -99.9 -99.99 -9.99
2019/11/21 04:06 CST    1.11   2.10    5  156    9  70.5  62.6 1016.4 -9.9 -9.999 -99.9 -99.99 -9.99
2019/11/21 04:12 CST    1.10   2.12    5  145    9  70.3  62.6 1016.3 -9.9 -9.999 -99.9 -99.99 -9.99
2019/11/21 04:18 CST    1.09   2.09    5  164   11  70.7  62.6 1016.3 -9.9 -9.999 -99.9 -99.99 -9.99
2019/11/21 04:24 CST    1.08   2.09    5  150    9  70.3  62.6 1016.3 -9.9 -9.999 -99.9 -99.99 -9.99
2019/11/21 04:30 CST    1.07   2.06    5  157    8  70.5  62.6 1016.3 -9.9 -9.999 -99.9 -99.99 -9.99
2019/11/21 04:36 CST    1.07   2.06    5  150    9  70.5  62.6 1016.3 -9.9 -9.999 -99.9 -99.99 -9.99
2019/11/21 04:42 CST    1.06   2.09    4  154    8  70.3  62.6 1016.4 -9.9 -9.999 -99.9 -99.99 -9.99
2019/11/21 04:48 CST    1.05   2.08    4  160   11  70.5  62.6 1016.4 -9.9 -9.999 -99.9 -99.99 -9.99
2019/11/21 04:54 CST    1.04   2.10    5  146   10  70.0  62.6 1016.3 -9.9 -9.999 -99.9 -99.99 -9.99
2019/11/21 05:00 CST    1.04   2.11    4  132    8  69.6  62.6 1016.3 -9.9 -9.999 -99.9 -99.99 -9.99
2019/11/21 05:06 CST    1.03   2.09    5  143    9  69.6  62.6 1016.3 -9.9 -9.999 -99.9 -99.99 -9.99
2019/11/21 05:12 CST    1.02   2.05    5  128    9  68.9  62.6 1016.2 -9.9 -9.999 -99.9 -99.99 -9.99
2019/11/21 05:18 CST    1.02   2.01    6  138   11  69.3  62.6 1016.1 -9.9 -9.999 -99.9 -99.99 -9.99
2019/11/21 05:24 CST    1.01   2.01    6  132   10  68.5  62.6 1016.0 -9.9 -9.999 -99.9 -99.99 -9.99
2019/11/21 05:30 CST    1.01   2.04    6  150    9  68.7  62.6 1016.0 -9.9 -9.999 -99.9 -99.99 -9.99
2019/11/21 05:36 CST    1.00   2.04    5  141    8  68.7  62.6 1016.1 -9.9 -9.999 -99.9 -99.99 -9.99
2019/11/21 05:42 CST    1.00   2.01    5  143    8  69.1  62.6 1016.3 -9.9 -9.999 -99.9 -99.99 -9.99
2019/11/21 05:48 CST    0.99   2.01    5  141   11  69.4  62.6 1016.3 -9.9 -9.999 -99.9 -99.99 -9.99
2019/11/21 05:54 CST    0.99   2.01    5  143    9  69.3  62.6 1016.2 -9.9 -9.999 -99.9 -99.99 -9.99
2019/11/21 06:00 CST    0.99   2.00    5  144    8  68.9  62.6 1016.2 -9.9 -9.999 -99.9 -99.99 -9.99
2019/11/21 06:06 CST    0.98   1.95    5  141    9  68.7  62.6 1016.3 -9.9 -9.999 -99.9 -99.99 -9.99
2019/11/21 06:12 CST    0.98   1.95    6  146    9  68.5  62.6 1016.3 -9.9 -9.999 -99.9 -99.99 -9.99
2019/11/21 06:18 CST    0.98   1.93    4  136    9  68.7  62.6 1016.2 -9.9 -9.999 -99.9 -99.99 -9.99
2019/11/21 06:24 CST    0.98   1.90    5  145    8  69.1  62.6 1016.2 -9.9 -9.999 -99.9 -99.99 -9.99
2019/11/21 06:30 CST    0.97   1.93    6  138   10  69.1  62.6 1016.3 -9.9 -9.999 -99.9 -99.99 -9.99
2019/11/21 06:36 CST    0.97 -99.99 -999 -999 -999 -99.9 -99.9 -999.9 -9.9 -9.999 -99.9 -99.99 -9.99
2019/11/21 06:42 CST    0.97 -99.99 -999 -999 -999 -99.9 -99.9 -999.9 -9.9 -9.999 -99.9 -99.99 -9.99
2019/11/21 06:48 CST    0.97 -99.99 -999 -999 -999 -99.9 -99.9 -999.9 -9.9 -9.999 -99.9 -99.99 -9.99
2019/11/21 06:54 CST    0.97 -99.99 -999 -999 -999 -99.9 -99.9 -999.9 -9.9 -9.999 -99.9 -99.99 -9.99
2019/11/21 07:00 CST    0.97 -99.99 -999 -999 -999 -99.9 -99.9 -999.9 -9.9 -9.999 -99.9 -99.99 -9.99
2019/11/21 07:06 CST    0.97 -99.99 -999 -999 -999 -99.9 -99.9 -999.9 -9.9 -9.999 -99.9 -99.99 -9.99
2019/11/21 07:12 CST    0.97 -99.99 -999 -999 -999 -99.9 -99.9 -999.9 -9.9 -9.999 -99.9 -99.99 -9.99
2019/11/21 07:18 CST    0.98 -99.99 -999 -999 -999 -99.9 -99.9 -999.9 -9.9 -9.999 -99.9 -99.99 -9.99
2019/11/21 07:24 CST    0.98 -99.99 -999 -999 -999 -99.9 -99.9 -999.9 -9.9 -9.999 -99.9 -99.99 -9.99
2019/11/21 07:30 CST    0.98 -99.99 -999 -999 -999 -99.9 -99.9 -999.9 -9.9 -9.999 -99.9 -99.99 -9.99
2019/11/21 07:36 CST    0.98 -99.99 -999 -999 -999 -99.9 -99.9 -999.9 -9.9 -9.999 -99.9 -99.99 -9.99
2019/11/21 07:42 CST    0.98 -99.99 -999 -999 -999 -99.9 -99.9 -999.9 -9.9 -9.999 -99.9 -99.99 -9.99
2019/11/21 07:48 CST    0.99 -99.99 -999 -999 -999 -99.9 -99.9 -999.9 -9.9 -9.999 -99.9 -99.99 -9.99
2019/11/21 07:54 CST    0.99 -99.99 -999 -999 -999 -99.9 -99.9 -999.9 -9.9 -9.999 -99.9 -99.99 -9.99
2019/11/21 08:00 CST    1.00 -99.99 -999 -999 -999 -99.9 -99.9 -999.9 -9.9 -9.999 -99.9 -99.99 -9.99
2019/11/21 08:06 CST    1.00 -99.99 -999 -999 -999 -99.9 -99.9 -999.9 -9.9 -9.999 -99.9 -99.99 -9.99
2019/11/21 08:12 CST    1.00 -99.99 -999 -999 -999 -99.9 -99.9 -999.9 -9.9 -9.999 -99.9 -99.99 -9.99
2019/11/21 08:18 CST    1.01 -99.99 -999 -999 -999 -99.9 -99.9 -999.9 -9.9 -9.999 -99.9 -99.99 -9.99
2019/11/21 08:24 CST    1.01 -99.99 -999 -999 -999 -99.9 -99.9 -999.9 -9.9 -9.999 -99.9 -99.99 -9.99
2019/11/21 08:30 CST    1.02 -99.99 -999 -999 -999 -99.9 -99.9 -999.9 -9.9 -9.999 -99.9 -99.99 -9.99
2019/11/21 08:36 CST    1.03 -99.99 -999 -999 -999 -99.9 -99.9 -999.9 -9.9 -9.999 -99.9 -99.99 -9.99
2019/11/21 08:42 CST    1.03 -99.99 -999 -999 -999 -99.9 -99.9 -999.9 -9.9 -9.999 -99.9 -99.99 -9.99
2019/11/21 08:48 CST    1.04 -99.99 -999 -999 -999 -99.9 -99.9 -999.9 -9.9 -9.999 -99.9 -99.99 -9.99
2019/11/21 08:54 CST    1.04 -99.99 -999 -999 -999 -99.9 -99.9 -999.9 -9.9 -9.999 -99.9 -99.99 -9.99
2019/11/21 09:00 CST    1.05 -99.99 -999 -999 -999 -99.9 -99.9 -999.9 -9.9 -9.999 -99.9 -99.99 -9.99
2019/11/21 09:06 CST    1.06 -99.99 -999 -999 -999 -99.9 -99.9 -999.9 -9.9 -9.999 -99.9 -99.99 -9.99
2019/11/21 09:12 CST    1.06 -99.99 -999 -999 -999 -99.9 -99.9 -999.9 -9.9 -9.999 -99.9 -99.99 -9.99
2019/11/21 09:18 CST    1.07 -99.99 -999 -999 -999 -99.9 -99.9 -999.9 -9.9 -9.999 -99.9 -99.99 -9.99
2019/11/21 09:24 CST    1.08 -99.99 -999 -999 -999 -99.9 -99.9 -999.9 -9.9 -9.999 -99.9 -99.99 -9.99
2019/11/21 09:30 CST    1.08 -99.99 -999 -999 -999 -99.9 -99.9 -999.9 -9.9 -9.999 -99.9 -99.99 -9.99
2019/11/21 09:36 CST    1.09 -99.99 -999 -999 -999 -99.9 -99.9 -999.9 -9.9 -9.999 -99.9 -99.99 -9.99
2019/11/21 09:42 CST    1.10 -99.99 -999 -999 -999 -99.9 -99.9 -999.9 -9.9 -9.999 -99.9 -99.99 -9.99
2019/11/21 09:48 CST    1.10 -99.99 -999 -999 -999 -99.9 -99.9 -999.9 -9.9 -9.999 -99.9 -99.99 -9.99
2019/11/21 09:54 CST    1.11 -99.99 -999 -999 -999 -99.9 -99.9 -999.9 -9.9 -9.999 -99.9 -99.99 -9.99
2019/11/21 10:00 CST    1.11 -99.99 -999 -999 -999 -99.9 -99.9 -999.9 -9.9 -9.999 -99.9 -99.99 -9.99
2019/11/21 10:06 CST    1.12 -99.99 -999 -999 -999 -99.9 -99.9 -999.9 -9.9 -9.999 -99.9 -99.99 -9.99
2019/11/21 10:12 CST    1.12 -99.99 -999 -999 -999 -99.9 -99.9 -999.9 -9.9 -9.999 -99.9 -99.99 -9.99
2019/11/21 10:18 CST    1.13 -99.99 -999 -999 -999 -99.9 -99.9 -999.9 -9.9 -9.999 -99.9 -99.99 -9.99
2019/11/21 10:24 CST    1.13 -99.99 -999 -999 -999 -99.9 -99.9 -999.9 -9.9 -9.999 -99.9 -99.99 -9.99
2019/11/21 10:30 CST    1.14 -99.99 -999 -999 -999 -99.9 -99.9 -999.9 -9.9 -9.999 -99.9 -99.99 -9.99
2019/11/21 10:36 CST    1.14 -99.99 -999 -999 -999 -99.9 -99.9 -999.9 -9.9 -9.999 -99.9 -99.99 -9.99
2019/11/21 10:42 CST    1.14 -99.99 -999 -999 -999 -99.9 -99.9 -999.9 -9.9 -9.999 -99.9 -99.99 -9.99
2019/11/21 10:48 CST    1.14 -99.99 -999 -999 -999 -99.9 -99.9 -999.9 -9.9 -9.999 -99.9 -99.99 -9.99
2019/11/21 10:54 CST    1.15 -99.99 -999 -999 -999 -99.9 -99.9 -999.9 -9.9 -9.999 -99.9 -99.99 -9.99
2019/11/21 11:00 CST    1.15 -99.99 -999 -999 -999 -99.9 -99.9 -999.9 -9.9 -9.999 -99.9 -99.99 -9.99
2019/11/21 11:06 CST    1.15 -99.99 -999 -999 -999 -99.9 -99.9 -999.9 -9.9 -9.999 -99.9 -99.99 -9.99
2019/11/21 11:12 CST    1.15 -99.99 -999 -999 -999 -99.9 -99.9 -999.9 -9.9 -9.999 -99.9 -99.99 -9.99
2019/11/21 11:18 CST    1.15 -99.99 -999 -999 -999 -99.9 -99.9 -999.9 -9.9 -9.999 -99.9 -99.99 -9.99
2019/11/21 11:24 CST    1.14 -99.99 -999 -999 -999 -99.9 -99.9 -999.9 -9.9 -9.999 -99.9 -99.99 -9.99
2019/11/21 11:30 CST    1.14 -99.99 -999 -999 -999 -99.9 -99.9 -999.9 -9.9 -9.999 -99.9 -99.99 -9.99
2019/11/21 11:36 CST    1.14 -99.99 -999 -999 -999 -99.9 -99.9 -999.9 -9.9 -9.999 -99.9 -99.99 -9.99
2019/11/21 11:42 CST    1.13 -99.99 -999 -999 -999 -99.9 -99.9 -999.9 -9.9 -9.999 -99.9 -99.99 -9.99
2019/11/21 11:48 CST    1.13 -99.99 -999 -999 -999 -99.9 -99.9 -999.9 -9.9 -9.999 -99.9 -99.99 -9.99
2019/11/21 11:54 CST    1.12 -99.99 -999 -999 -999 -99.9 -99.9 -999.9 -9.9 -9.999 -99.9 -99.99 -9.99
2019/11/21 12:00 CST    1.12 -99.99 -999 -999 -999 -99.9 -99.9 -999.9 -9.9 -9.999 -99.9 -99.99 -9.99
2019/11/21 12:06 CST    1.11 -99.99 -999 -999 -999 -99.9 -99.9 -999.9 -9.9 -9.999 -99.9 -99.99 -9.99
2019/11/21 12:12 CST    1.10 -99.99 -999 -999 -999 -99.9 -99.9 -999.9 -9.9 -9.999 -99.9 -99.99 -9.99
2019/11/21 12:18 CST    1.10 -99.99 -999 -999 -999 -99.9 -99.9 -999.9 -9.9 -9.999 -99.9 -99.99 -9.99
2019/11/21 12:24 CST    1.09 -99.99 -999 -999 -999 -99.9 -99.9 -999.9 -9.9 -9.999 -99.9 -99.99 -9.99
2019/11/21 12:30 CST    1.08 -99.99 -999 -999 -999 -99.9 -99.9 -999.9 -9.9 -9.999 -99.9 -99.99 -9.99
2019/11/21 12:36 CST    1.07 -99.99 -999 -999 -999 -99.9 -99.9 -999.9 -9.9 -9.999 -99.9 -99.99 -9.99
2019/11/21 12:42 CST    1.05 -99.99 -999 -999 -999 -99.9 -99.9 -999.9 -9.9 -9.999 -99.9 -99.99 -9.99
2019/11/21 12:48 CST    1.04 -99.99 -999 -999 -999 -99.9 -99.9 -999.9 -9.9 -9.999 -99.9 -99.99 -9.99